| time (UTC) | temp F | wind direction | speed knots | gust knots | rain 1hr in | rain 24hr in | rain mn in | humidity % | barometer mb |
| 20260906224549 | 96 | 162 | 2.6 | 7.8 | 0.00 | 0.00 | 0.00 | 38 | 1009.5 |
| 20260906223038 | 94 | 193 | 5.2 | 10.4 | 0.00 | 0.00 | 0.00 | 39 | 1009.6 |
| 20260906221542 | 95 | 140 | 8.7 | 15.6 | 0.00 | 0.00 | 0.00 | 39 | 1009.7 |
| 20260906220037 | 95 | 155 | 7.0 | 13.9 | 0.00 | 0.00 | 0.00 | 38 | 1009.6 |
| 20260906214544 | 94 | 152 | 1.7 | 7.8 | 0.00 | 0.00 | 0.00 | 39 | 1009.7 |
| 20260906213034 | 97 | 196 | 4.3 | 10.4 | 0.00 | 0.00 | 0.00 | 36 | 1009.9 |
| 20260906211514 | 97 | 159 | 2.6 | 8.7 | 0.00 | 0.00 | 0.00 | 35 | 1010.1 |
| 20260906210022 | 96 | 132 | 0.9 | 7.8 | 0.00 | 0.00 | 0.00 | 36 | 1010.4 |
| 20260906204557 | 96 | 150 | 3.5 | 9.6 | 0.00 | 0.00 | 0.00 | 37 | 1010.7 |
| 20260906203055 | 96 | 208 | 6.1 | 10.4 | 0.00 | 0.00 | 0.00 | 37 | 1010.9 |
| 20260906201553 | 95 | 188 | 6.1 | 9.6 | 0.00 | 0.00 | 0.00 | 38 | 1011.0 |
| 20260906200152 | 93 | 143 | 6.1 | 13.0 | 0.00 | 0.00 | 0.00 | 41 | 1011.2 |
| 20260906194552 | 95 | 144 | 5.2 | 13.9 | 0.00 | 0.00 | 0.00 | 40 | 1011.1 |
| 20260906193051 | 94 | 137 | 3.5 | 7.8 | 0.00 | 0.00 | 0.00 | 40 | 1011.4 |
| 20260906191550 | 94 | 149 | 2.6 | 12.2 | 0.00 | 0.00 | 0.00 | 40 | 1011.4 |
| 20260906190048 | 95 | 184 | 4.3 | 7.8 | 0.00 | 0.00 | 0.00 | 39 | 1011.6 |
| 20260906184537 | 94 | 139 | 0.9 | 9.6 | 0.00 | 0.00 | 0.00 | 40 | 1011.9 |
| 20260906183038 | 93 | 97 | 5.2 | 12.2 | 0.00 | 0.00 | 0.00 | 42 | 1012.2 |
| 20260906181539 | 92 | 97 | 1.7 | 5.2 | 0.00 | 0.00 | 0.00 | 45 | 1012.3 |
| 20260906180033 | 93 | 182 | 1.7 | 6.1 | 0.00 | 0.00 | 0.00 | 45 | 1012.5 |
| 20260906174533 | 94 | 216 | 0.0 | 5.2 | 0.00 | 0.00 | 0.00 | 44 | 1012.7 |
| 20260906173034 | 93 | 199 | 3.5 | 10.4 | 0.00 | 0.00 | 0.00 | 44 | 1013.0 |
| 20260906171532 | 94 | 153 | 1.7 | 4.3 | 0.00 | 0.00 | 0.00 | 44 | 1013.3 |
| 20260906170030 | 93 | 227 | 2.6 | 6.1 | 0.00 | 0.00 | 0.00 | 45 | 1013.3 |
| 20260906164530 | 93 | 355 | 0.9 | 6.1 | 0.00 | 0.00 | 0.00 | 44 | 1013.5 |
| 20260906163030 | 95 | 148 | 2.6 | 6.1 | 0.00 | 0.00 | 0.00 | 44 | 1013.6 |
| 20260906161512 | 94 | 320 | 0.0 | 2.6 | 0.00 | 0.00 | 0.00 | 47 | 1013.7 |
| 20260906160028 | 93 | 42 | 0.9 | 2.6 | 0.00 | 0.00 | 0.00 | 49 | 1013.8 |
| 20260906154509 | 93 | 300 | 0.9 | 2.6 | 0.00 | 0.00 | 0.00 | 49 | 1013.7 |
| 20260906153006 | 94 | 5 | 0.9 | 3.5 | 0.00 | 0.00 | 0.00 | 49 | 1013.7 |
| 20260906151502 | 91 | 308 | 0.0 | 3.5 | 0.00 | 0.00 | 0.00 | 54 | 1013.7 |
| 20260906150100 | 89 | 239 | 0.0 | 4.3 | 0.00 | 0.00 | 0.00 | 56 | 1013.5 |
| 20260906144609 | 89 | 246 | 0.9 | 2.6 | 0.00 | 0.00 | 0.00 | 56 | 1013.4 |
| 20260906143108 | 86 | 198 | 0.0 | 1.7 | 0.00 | 0.00 | 0.00 | 61 | 1013.4 |
| 20260906141539 | 85 | 207 | 0.9 | 3.5 | 0.00 | 0.00 | 0.00 | 63 | 1013.4 |
| 20260906140043 | 82 | 119 | 0.0 | 1.7 | 0.00 | 0.00 | 0.00 | 65 | 1013.4 |
| 20260906134530 | 81 | 56 | 0.0 | 1.7 | 0.00 | 0.00 | 0.00 | 67 | 1013.2 |
| 20260906133026 | 78 | 175 | 0.0 | 0.9 | 0.00 | 0.00 | 0.00 | 72 | 1013.2 |
| 20260906130037 | 72 | 89 | 0.0 | 0.0 | 0.00 | 0.00 | 0.00 | 75 | 1012.9 |
| 20260906124519 | 70 | 89 | 0.0 | 0.0 | 0.00 | 0.00 | 0.00 | 77 | 1012.7 |
| 20260906123021 | 70 | 89 | 0.0 | 0.0 | 0.00 | 0.00 | 0.00 | 78 | 1012.5 |
| 20260906121505 | 71 | 89 | 0.0 | 0.0 | 0.00 | 0.00 | 0.00 | 79 | 1012.4 |
| 20260906120004 | 71 | 89 | 0.0 | 0.0 | 0.00 | 0.00 | 0.00 | 79 | 1012.3 |
| 20260906114503 | 71 | 89 | 0.0 | 0.0 | 0.00 | 0.00 | 0.00 | 78 | 1012.1 |
| 20260906113100 | 71 | 89 | 0.0 | 0.0 | 0.00 | 0.00 | 0.00 | 76 | 1012.1 |
| 20260906111558 | 71 | 89 | 0.0 | 0.0 | 0.00 | 0.00 | 0.00 | 76 | 1011.9 |
| 20260906110056 | 72 | 89 | 0.0 | 0.0 | 0.00 | 0.00 | 0.00 | 75 | 1011.9 |
| 20260906104656 | 72 | 89 | 0.0 | 0.0 | 0.00 | 0.00 | 0.00 | 75 | 1011.9 |
| 20260906103055 | 72 | 88 | 0.0 | 0.0 | 0.00 | 0.00 | 0.00 | 74 | 1011.7 |
| 20260906101540 | 72 | 89 | 0.0 | 0.0 | 0.00 | 0.00 | 0.00 | 73 | 1011.7 |
| 20260906100034 | 72 | 132 | 0.0 | 0.0 | 0.00 | 0.00 | 0.00 | 73 | 1011.7 |
| 20260906094531 | 73 | 133 | 0.0 | 0.0 | 0.00 | 0.00 | 0.00 | 75 | 1011.5 |
| 20260906093018 | 73 | 133 | 0.0 | 0.0 | 0.00 | 0.00 | 0.00 | 73 | 1011.3 |
| 20260906091525 | 73 | 133 | 0.0 | 0.0 | 0.00 | 0.00 | 0.00 | 73 | 1011.2 |
| 20260906090016 | 74 | 133 | 0.0 | 0.0 | 0.00 | 0.00 | 0.00 | 72 | 1011.2 |
| 20260906084522 | 74 | 133 | 0.0 | 0.0 | 0.00 | 0.00 | 0.00 | 72 | 1011.3 |
| 20260906083021 | 74 | 130 | 0.0 | 3.5 | 0.00 | 0.00 | 0.00 | 71 | 1011.5 |
| 20260906081529 | 74 | 188 | 0.0 | 0.9 | 0.00 | 0.00 | 0.00 | 71 | 1011.6 |
| 20260906080010 | 74 | 203 | 0.0 | 0.0 | 0.00 | 0.00 | 0.00 | 72 | 1011.4 |
| 20260906074556 | 74 | 203 | 0.0 | 0.0 | 0.00 | 0.00 | 0.00 | 71 | 1011.3 |
| 20260906073054 | 75 | 203 | 0.0 | 0.0 | 0.00 | 0.00 | 0.00 | 70 | 1011.5 |
| 20260906071604 | 75 | 203 | 0.0 | 0.0 | 0.00 | 0.00 | 0.00 | 71 | 1011.7 |
| 20260906070052 | 75 | 203 | 0.0 | 0.0 | 0.00 | 0.00 | 0.00 | 70 | 1011.8 |
| 20260906064549 | 75 | 203 | 0.0 | 0.0 | 0.00 | 0.00 | 0.00 | 69 | 1011.8 |
| 20260906063149 | 76 | 203 | 0.0 | 0.0 | 0.00 | 0.00 | 0.00 | 69 | 1011.9 |
| 20260906061544 | 76 | 203 | 0.0 | 0.0 | 0.00 | 0.00 | 0.00 | 66 | 1012.1 |
| 20260906060041 | 77 | 203 | 0.0 | 0.9 | 0.00 | 0.00 | 0.00 | 63 | 1012.0 |
| 20260906054529 | 77 | 205 | 0.0 | 0.9 | 0.00 | 0.00 | 0.00 | 62 | 1012.0 |
| 20260906053030 | 78 | 205 | 0.0 | 0.9 | 0.00 | 0.00 | 0.00 | 62 | 1012.2 |
| 20260906051531 | 78 | 205 | 0.0 | 0.9 | 0.00 | 0.00 | 0.00 | 61 | 1012.2 |
| 20260906050046 | 79 | 200 | 0.0 | 1.7 | 0.00 | 0.00 | 0.00 | 58 | 1012.3 |
| 20260906044521 | 80 | 159 | 0.0 | 0.9 | 0.00 | 0.00 | 0.00 | 57 | 1012.3 |
| 20260906043021 | 80 | 159 | 0.0 | 0.9 | 0.00 | 0.00 | 0.00 | 56 | 1012.3 |
| 20260906041520 | 81 | 159 | 0.0 | 1.7 | 0.00 | 0.00 | 0.00 | 55 | 1012.3 |
| 20260906040020 | 82 | 165 | 0.9 | 4.3 | 0.00 | 0.00 | 0.00 | 53 | 1012.1 |
| 20260906034527 | 84 | 165 | 1.7 | 3.5 | 0.00 | 0.00 | 0.00 | 51 | 1012.0 |
| 20260906033008 | 85 | 158 | 1.7 | 6.1 | 0.00 | 0.00 | 0.00 | 49 | 1011.9 |
| 20260906031507 | 85 | 182 | 2.6 | 5.2 | 0.00 | 0.00 | 0.00 | 49 | 1011.5 |
| 20260906030006 | 86 | 114 | 2.6 | 6.1 | 0.00 | 0.00 | 0.00 | 46 | 1011.0 |
| 20260906024507 | 87 | 92 | 3.5 | 7.0 | 0.00 | 0.00 | 0.00 | 45 | 1010.7 |
| 20260906023005 | 88 | 114 | 3.5 | 7.8 | 0.00 | 0.00 | 0.00 | 43 | 1010.4 |
| 20260906021504 | 88 | 136 | 3.5 | 7.8 | 0.00 | 0.00 | 0.00 | 42 | 1010.2 |
| 20260906020004 | 88 | 92 | 1.7 | 5.2 | 0.00 | 0.00 | 0.00 | 42 | 1010.0 |
| 20260906014508 | 89 | 113 | 1.7 | 5.2 | 0.00 | 0.00 | 0.00 | 41 | 1009.9 |
| 20260906013045 | 90 | 115 | 0.9 | 7.8 | 0.00 | 0.00 | 0.00 | 40 | 1009.7 |
| 20260906011544 | 91 | 123 | 3.5 | 7.0 | 0.00 | 0.00 | 0.00 | 39 | 1009.5 |
| 20260906010034 | 92 | 103 | 4.3 | 8.7 | 0.00 | 0.00 | 0.00 | 38 | 1009.3 |
| 20260906004536 | 93 | 130 | 5.2 | 9.6 | 0.00 | 0.00 | 0.00 | 38 | 1009.1 |
| 20260906003033 | 94 | 94 | 2.6 | 7.8 | 0.00 | 0.00 | 0.00 | 39 | 1009.3 |
| 20260906000032 | 95 | 153 | 5.2 | 8.7 | 0.00 | 0.00 | 0.00 | 38 | 1009.1 |
| 20260905234529 | 96 | 85 | 4.3 | 9.6 | 0.00 | 0.00 | 0.00 | 38 | 1008.9 |
| 20260905233030 | 96 | 169 | 2.6 | 10.4 | 0.00 | 0.00 | 0.00 | 38 | 1008.8 |
| 20260905231528 | 96 | 128 | 6.1 | 9.6 | 0.00 | 0.00 | 0.00 | 38 | 1008.8 |
| 20260905230015 | 96 | 108 | 2.6 | 10.4 | 0.00 | 0.00 | 0.00 | 39 | 1008.8 |